STARLINK-35691, 66404

Orbit data source: Space-Track

STARLINK-35691, 66404 is a payload satellite owned by SpaceX/Seattle (US) in LEO that was launched on Sat, 08 Nov 2025 UTC via an FALCON 9 launch vehicle from the Air Force Eastern Test Range (AFETR). Payload-class satellites include a variety of spacecraft equipped with specific instruments for various scientific and technological missions. These include communications satellites like Starlink; space stations such as the ISS; scientific satellites like the Hubble; Earth observation satellites from companies like Planet Labs, Umbra, and HawkEye 360; GPS; miniature CubeSats for education and research; and military/defense satellites.

Loading next visibility...
Identifier
66404, 2025-257AA
Orbit
LEO
Country
Flag of USUS
Related business
Manufacturer
SpaceX/Seattle
Mission
Operational Commercial Communications
Bus & Motor
STARLINK V2MO, Unknown motor
Mass
575 kg wet, ~530 kg dry
Launch date (UTC)
2025-11-08 (7 months ago)
Launch vehicle
FALCON 9
Launch site
Air Force Eastern Test Range (AFETR)
Object type
Payload
Rocket body
Debris
Shape & HBR
Box + 2 Pan, 17.7 m
Radar Cross Section
36.964 m², Large (>1 m²)

Expand to show TLE details & history
Last TLE update: 15 hours ago

TLE from 15 hours ago
0 STARLINK-35691
1 66404U 25257AA  26171.21176138  .00024821  00000-0  74283-3 0  9991
2 66404  53.1582  99.1463 0000885  84.1844 275.9260 15.34420162 35454
Epoch: 2026-06-20T05:04Z
TLE epoch observation values (Epoch: 2026-06-20T05:04:56.183Z)
Latitude
0.00003°
Longitude
114.4826°
Altitude
463.482 km
Speed
7.636 km/s
True Right ascension
06h 36m 35s
True Declination
0° 00' 00"
Sunlit
Object was in daylight at epoch
Visualization orbit readout
Latitude
Unknown
Longitude
Unknown
Altitude
Unknown
Speed
Unknown
Apparent Right ascension
Unknown
Apparent Declination
Unknown
Sunlit
N/A
Visualization observer readout
Local Sidereal Time
07:16:24
Azimuth
Unknown
Elevation
Unknown
Doppler factor
Unknown
Orbital elements
Apogee altitude
463.506 km
Perigee altitude
462.295 km
Semi-major axis
6,841.037 km
Eccentricity
0.00009
Inclination
53.1582°
RAAN
99.1463°
Arg. of periapsis
84.1844°
True anomaly
275.91591°
Mean anomaly
275.926°
Eccentric anomaly
275.92096°
Mean motion
3.83584 °/min
Orbital period
93.85 mins
BSTAR
0.00074283
Loading maneuver chart data...
Computing Atmospheric mass density...
Loading historical data...
Loading historical data...
Loading historical data...
Loading historical data...
Loading historical data...
Loading historical data...
Loading historical data...

Documentation

Showing up to 5 results
|